Tracking 18032 objects as of 27-March-2017
HD Live streaming from Space Station
objects crossing your sky now

SL-14 R/B

Track SL-14 R/B now!
10-day predictions


NORAD ID: 16720
Int'l Code: 1986-034B
Perigee: 611.6 km
Apogee: 640.7 km
Inclination: 82.6 °
Period: 97.1 minutes
Semi major axis: 6997 km
RCS: 3.5564 m2 (large)
Launch date: May 15, 1986
Source: Commonwealth of Independent States (former USSR) (CIS)
Launch site: PLESETSK MISSILE AND SPACE COMPLEX (PKMTR)

Note: This is a ROCKET BODY
Your satellite tracking list
Your tracking list is empty





NASA's NSSDC Master Catalog

Two Line Element Set (TLE):
1 16720U 86034B   17084.73444664 +.00000115 +00000-0 +11105-4 0  9994
2 16720 082.5542 319.3090 0020781 021.0755 041.4671 14.83280150666897
Source of the keplerian elements: AFSPC